DECAYED

STARLINK-30342, 57705 (Decayed)

Orbit data source: Space-Track

STARLINK-30342, 57705 was a payload satellite owned by SpaceX/Seattle (US) in LEO that was launched on Sun, 27 Aug 2023 UTC via an FALCON 9 launch vehicle from the Air Force Eastern Test Range (AFETR). Payload-class satellites include a variety of spacecraft equipped with specific instruments for various scientific and technological missions. These include communications satellites like Starlink; space stations such as the ISS; scientific satellites like the Hubble; Earth observation satellites from companies like Planet Labs, Umbra, and HawkEye 360; GPS; miniature CubeSats for education and research; and military/defense satellites.

Not visible in the next 10 days
Identifier
57705, 2023-129H
Orbit
Decayed
Country
Flag of USUS
Related business
Manufacturer
SpaceX/Seattle
Mission
Non-operational Commercial Communications
Bus & Motor
STARLINK V2M, Unknown motor
Mass
730 kg wet, ~700 kg dry
Launch date (UTC)
2023-08-27 (3 years ago)
Launch vehicle
FALCON 9
Launch site
Air Force Eastern Test Range (AFETR)
Object type
Payload
Rocket body
Debris
Shape & HBR
Box + 2 Pan, 17.7 m
Radar Cross Section
33.884 m², Large (>1 m²)

Expand to show TLE details & history
Last TLE update: 10 months ago

TLE from 10 months ago
0 STARLINK-30342
1 57705U 23129H   25234.07834418  .01091976  73007-3  10496-2 0  9997
2 57705  42.9964 107.8822 0007149 237.1973 122.8221 16.10932825110828
Epoch: 2025-08-22T01:52Z
TLE epoch observation values (Epoch: 2025-08-22T01:52:48.937Z)
Latitude
-0.00001°
Longitude
109.04566°
Altitude
246.621 km
Speed
7.759 km/s
True Right ascension
07h 11m 31s
True Declination
0° 00' 00"
Sunlit
Object was in daylight at epoch
Visualization orbit readout
Latitude
Unknown
Longitude
Unknown
Altitude
Unknown
Speed
Unknown
Apparent Right ascension
Unknown
Apparent Declination
Unknown
Sunlit
N/A
Visualization observer readout
Local Sidereal Time
21:25:07
Azimuth
Unknown
Elevation
Unknown
Doppler factor
Unknown
Orbital elements
Apogee altitude
251.037 km
Perigee altitude
241.565 km
Semi-major axis
6,624.438 km
Eccentricity
0.00071
Inclination
42.9964°
RAAN
107.8822°
Arg. of periapsis
237.1973°
True anomaly
122.89091°
Mean anomaly
122.8221°
Eccentric anomaly
122.85651°
Mean motion
4.0255 °/min
Orbital period
89.43 mins
BSTAR
0.0010496
Loading maneuver chart data...
Computing Atmospheric mass density...
Loading historical data...
Loading historical data...
Loading historical data...
Loading historical data...
Loading historical data...
Loading historical data...
Loading historical data...

Documentation

Showing up to 5 results
|